Aérodrome :
LOGIN :

S'inscrire | Disclaimer

   EN    FR    IT 

 










Légende :    VFR   VFR Marginal   IFR   IFR Intensif   IFR Très Intensif
Visi : 
Plafond : 
>= 8 km
>= 3000ft
5 à 8 km
1000 à 3000 ft
1500m à 5 km
500 à 1000 ft
800 à 1500m
200 à 500 ft
< 800m
< 200 ft
Symboles :   Orages  Brouillard  Fortes neiges  Fortes précipitations  Vent > 20 kt
SIGMETs :   Divers  Orages  Givrage  Turbulence  Onde Orograph.  Cendres Volcan.







- Altitude de l'aérodrome : 171 ft
- Code IATA : EGC
- Voir les cartes d'approche


LFBE - Bergerac

DERNIER METAR :
  • 251530Z AUTO 01009KT 9000 NSC 10/M03 Q1012 NOSIG

METARs EXPIRÉS :
  • 251500Z AUTO 35008KT 330V030 9000 FEW016 10/M01 Q1012 NOSIG
  • 251430Z AUTO 36006KT 330V060 CAVOK 10/M01 Q1011 NOSIG
  • 251400Z AUTO 01005KT 9000 NSC 10/01 Q1012 NOSIG
  • 251330Z AUTO 36005KT 280V040 9000 NSC 09/01 Q1012 NOSIG
  • 251300Z AUTO 27004KT 200V330 6000 NSC 08/01 Q1012 NOSIG

TAF TAF LFBE
Valide du 25 à 12h jusqu'au 26 à 12h UTC


251100Z 2512/2612 VRB02KT 6000 NSC
BECMG 2515/2518 01010KT CAVOK
Pas de NOTAMs connus pour ce terrain.



MET'MAP, la Météo Aéronautique d'un coup d'oeil ! - Copyright ORBIFLY Décembre 2007 - Disclaimer

ORBIFLY MET'MAP TEAM :

Programmation & Développement : Alexandra Zaïnal
Conception & Développement : Baudouin d'Aumeries
Co-Programmation & Développement : Marc-Olivier Méhu
Soutien technique & logistique : Manuel Goepfert

Contact : metmap@orbifly.com




SOURCES & CREDITS :

   NOAA